[Date Prev][Date Next][Thread Prev][Thread Next][Date Index][Thread Index]

[jamsat-news:1677] jas2info #267




========================   最新情報   ==============================

        Last updated  22Mar2002  18:00(JST)   #267 

====================================================================

   
1)アマチュア通信衛星情報、FOシリーズの軌道要素、テレメトリ、QSOの
   状況等をまとめてみました.
   
 FO−29の2002年3月22日(金)の16:37(JST)のパスでは
JARLのホームページのとうりアナログ運用でした。 今日までの観測した
テレメトリーと最終の分析結果を報告しておきます。

AS27626C  22Mar2002
16:37-16:48(JST)
AOS   MEL  LOS  Elev
 50    88  125   6.3
Freq. 435.798-.790MHz

HI HI AE 07 88 55 00 D4 FD 79 09 4B 79 56 59 54 5F 8C 97 5D 8C 8A 89 8A 85 
HI HI AE 07 88 55 00 D4 FD 79 09 4B 65 56 58 5D 8D 8A 97 71 8C 8A 89 8A 85 
HI HI AE 07 88 55 00 D4 FD 79 09 4B 70 55 60 58 8E 8C 99 77 8C 8A 89 8A 85 
HI HI AE 07 88 55 00 D4 FD 79 09 4B 7B 56 65 54 90 8E 9B 83 8C 8A 89 8A 85 
HI HI AE C7 88 55 00 D4 FD 79 09 4B 85 5E 67 5F 90 8E 9D 72 8D 8A 89 8A 85
HI HI AE C7 88 55 00 D4 FD 79 09 4B 8B 5E 72 5F 90 8E B0 6E 8D 8A 89 8A 85 
HI HI TE C7 88 55 00 D4 FD 79 09 4B 90 62 76 5F 8F 8E B0 6F 8D 8A 89 8A 85 
HI HI AE C7 88 55 00 D4 FD 79 09 4B 93 68 74 5F 8F 8E B0 73 8C 8A 89 8A 85  
HI HI AE C7 88 55 00 D4 FD 79 09 4B 94 6E 6D 5E 90 8E B0 8B 8C 8A 8A 8A 85 
HI HI AE C7 88 55 00 D4 FD 79 09 4B 92 73 6F 5F 90 8D B0 7A 8C 8A 8A 8A 85 
HI HI AE C7 88 55 00 D4 FD 79 09 4B 8E 77 74 5E 8F 8D B0 81 8C 8A 8A 8A 85 
HI HI AE C7 88 55 00 D4 FD 79 09 4B 89 7A 72 5E 8F 8D B0 6B 8C 8A 8A 8A 85 
HI HI AE C7 88 55 00 D4 FD 79 09 4B 82 7B 6F 5E 8F 8D B0 82 8C 8A 8A 8A 85 
HI HI AE C7 88 55 00 D4 FD 79 09 SB 7B 7A 6C 5E 8F 8D B0 61 8C 8A 8A 89 85 
HI HI AE C7 88 55 00 D4 FD 79 09 4B 74 79 62 5E 8F 8D B0 7B 8C 8A 8A 89 85 

AS27599C  20Mar2002
16:42-16:52(JST)
AOS   MEL  LOS  Elev
 49    88  128   7.0
Freq. 435.798-.790MHz

HI HI AE C7 88 55 00 D4 B5 6D 09 15 72 47 62 5F 90 8E B0 86 8B 8A 8A 8A 85 
HI HI AE C7 88 55 00 D4 B5 6D 09 15 6B 41 6A 5F 90 8E B0 88 8B 8A 8A 8A 85 
HI HI AE C7 88 55 00 D4 B5 6D 09 15 64 3D 70 5F 90 8D B0 8B 8B 8A 8A 8A 85 
HI HI AE C7 88 55 00 D4 B5 6D 09 15 5C 3C 76 5E 90 8E B0 6B 8B 8A 8A 8A 85 
HI HI AE C7 88 55 00 D4 B5 6D 09 15 54 3A 78 5E 90 8E B0 74 8B 8A 8A 8A 85 
HI HI AE C7 88 55 00 D4 B5 6D 09 15 4C 45 77 5F 90 8E B0 7C 8B 8A 8A 89 85 
HI HI AE C7 88 55 00 D4 B5 6D 09 15 45 4E 77 5F 90 8E B0 70 8B 8A 8A 89 85 
HI HI AE C7 88 55 00 D4 B5 6D 09 15 41 59 76 5E 90 8D B0 7C 8B 8A 8A 89 85 
HI HI AE C7 88 55 00 D4 B5 6D 09 15 3F 65 74 5F 8F 8D B0 9D 8B 8A 89 89 85 
HI HI AE C7 88 55 00 D4 B5 6D 09 15 3F 72 71 5E 8F 8D B0 86 8B 8A 89 89 85 
HI HI AE C7 88 55 00 D4 B5 6D 09 15 43 7E 77 5E 8F 8D B0 7E 8B 7B 89 89 85 
HI HI AE C7 88 55 00 D4 B5 6D 06 15 49 89 7D 5E 8E 8D B0 77 8C 8B 89 89 85      
 
------------------------ FO-29の軌道要素 ------------------------------        
 
  ■ 軌道要素1:「jamsat−keps:1088」より         
          SB KEPS @ AMSAT  $ORB02080.N
          2Line Orbital Elements 02080.AMSAT

HR AMSAT ORBITAL ELEMENTS FOR AMATEUR SATELLITES IN NASA FORMAT
FROM WA5QGD FORT WORTH,TX March 21, 2002
SEND SUBSCRIBE/UNSUBSCRIBE TO majordomo@amsat.org ONLY
BID: ORB02080.N

 DECODE 2-LINE ELSETS WITH THE FOLLOWING KEY:
 1 AAAAAU 00  0  0 BBBBB.BBBBBBBB  .CCCCCCCC  00000-0  00000-0 0  DDDZ
 2 AAAAA EEE.EEEE FFF.FFFF GGGGGGG HHH.HHHH III.IIII JJ.JJJJJJJJKKKKKZ
 KEY: A-CATALOGNUM B-EPOCHTIME C-DECAY D-ELSETNUM E-INCLINATION F-RAAN
 G-ECCENTRICITY H-ARGPERIGEE I-MNANOM J-MNMOTION K-ORBITNUM Z-CHECKSUM

FO-29
1 24278U 96046B   02079.58954493  .00000043  00000-0  80348-4 0 04880
2 24278 098.5154 271.8444 0351695 005.2630 355.2055 13.52829720276012

 ■ 軌道要素2:「jamsat−keps:1087」より
         SB KEPS @ AMSAT  $ORB02080.O
         Orbital Elements  02080.OSCAR
 
 HR AMSAT ORBITAL ELEMENTS FOR OSCAR SATELLITES
 FROM WA5QGD FORT WORTH,TX March 21, 2002
 SEND SUBSCRIBE/UNSUBSCRIBE TO majordomo@amsat.org ONLY
 BID: ORB02080.O
 TO ALL RADIO AMATEURS BT

Satellite: FO-29
Catalog number: 24278
Epoch time:      02079.58954493
Element set:    0488
Inclination:      098.5154 deg
RA of node:       271.8444 deg
Eccentricity:    0.0351695
Arg of perigee:   005.2630 deg
Mean anomaly:     355.2055 deg
Mean motion:   13.52829720 rev/day
Decay rate:        4.3e-07 rev/day^2
Epoch rev:           27601
Checksum:              324

-------------------  FO-29(JAS-2)のテレメトリに関する情報  ---------------------- 
 
2)上記2002年3月22日(金)のテレメトリの最終行を分析しておきます.

AS27626C  22Mar2002
16:37-16:48(JST)
AOS   MEL  LOS  Elev
 50    88  125   6.3
Freq. 435.798-.790MHz

HI HI AE C7 88 55 00 D4 FD 79 09 4B 74 79 62 5E 8F 8D B0 7B 8C 8A 8A 89 85 
 
テレメトリ   内 容         換算算値 単 位
3C	磁気センサーZ軸=	56862.7	[nT]
3D	磁気センサX軸	=	59313.7	[nT]
4A	太陽電池発生電流=	  960.8	[mA]
4B	B充放電電流	=	 -157.6	[mA]
4C	B端子電圧	=	   15.4	[V]
4D	B中間端子電圧	=	    6.8	[V]
5A	バス電圧	=	   17.3	[V]
5B	JTA送信電力	=	  701.4	[mW]
5C 	構体温度1	=	   27.5	[℃]
5D	構体温度2	=	   28.3	[℃]
6A	構体温度3	=	   28.3	[℃]
6B	構体温度4	=	   28.7	[℃]
6C	Bセル温度	=	   30.2	[℃]

 ========================== FO-29(ふじ3号)のテレメトリ分析、QSO情報等 =====================
   
 3)[jamsat-bb:

 ===============================================================================
 
 4)JARL のホームページに運用予定が記載されていましたのでご紹介します.
       ( http://www.jarl.or.jp/Japanese/3_Fuji/new/uy.htm )
       
        ふじ3号(JAS−2)の運用          

       *** 運用予定について ***

  平成13年      平成14年
 12月4日(火) 〜 3月31日(日)アナログ系運用

  *なお,運用予定は都合により,変更することがありますので,
   あらかじめご了承願います。

 照会先 : lab@jarl.or.jp

 最新の情報はテレホンサービス(03−3942−1000)をお聞きください。  
 以後の運用につきましては平成14年4月上旬にお知らせいたします 
     
-----------------------    FO−20(JAS-1b)道要素   -------------------------
  
  ■ 軌道要素1 :出典はFO-29「ふじ3号」に同じ.
  
FO-20
1 20480U 90013C   02079.62596720  .00000035  00000-0  14528-3 0 03852
2 20480 099.0266 100.9131 0540904 043.0040 321.2044 12.83312572567554
 
  ■ 軌道要素2 :出典はFO−29「ふじ3号」に同じ.
               
Satellite: FO-20
Catalog number: 20480
Epoch time:      02079.62596720
Element set:    0385
Inclination:      099.0266 deg
RA of node:       100.9131 deg
Eccentricity:    0.0540904
Arg of perigee:   043.0040 deg
Mean anomaly:     321.2044 deg
Mean motion:   12.83312572 rev/day
Decay rate:        3.5e-07 rev/day^2
Epoch rev:           56755
Checksum:              264

-------------------------------------------------------------------------------- 
         ■ ふじ2号/FO−20/JAS-1b ■      
            
          「ふじ2号」 現況                                                                                  
             
   JAS-1b(ふじ2号)のCWテレメトリ信号に,1997年10月12日12時(JST)の
 日本上空通過時,3桁の数字が繰り返されるはずが3個の長音の繰り返しとなっているという
 異常が発見されました。この不具合は次の通過時からは回復していましたが13日15時20分の
 通過時に再び観測されました。現在はA0の送信が続いています。衛星のアナログ系中継モード
 動作は異常が無く,正常時のテレメトリ内容からは衛星の動作に異常は認められません。従って,
 直ちに衛星のミッションに影響することは無いと予想されますので,当面はアナログ系中継
 モードを継続します。衛星は既に打ち上げてから7年8ヶ月を経ておりますので,今後は監視を
 強化する予定です。アマチュア各位のレポートをお待ちします。
 -------------------------------------------------------------------------------- 
  1997年10月14日 00時35分 確認のテレメトリ音 151 KB (A0) 
  1997年10月14日 11時10分 確認のテレメトリ音 216 KB (異常キーイング) 

  以上 JARLのホ−ムページの http://www.jarl.or.jp/Japanese/3_Fuji/new/fuji.htm

===================== FO-20 ふじ2号 のテレメトリ観測結果 ====================

  3月8日(金)18:18(JST)の観測結果ではテレメトリは、以前観測した単一周波数の
正弦波がドップラー効果で周波数がずれていくのみの状態でした。
                                         
   =============   JAS-2 (ふじ3号)と現在までの情報   ===========
  
  A.電話によるふじ3号の運用情報
      社団法人日本アマチュア連盟によるサービス
           TEL .   03− 3942 − 1000
  B.アマチュア無線FAXサービス
      JARLによるふじ3号の軌道情報(オービットカレンダー)
         FAX No.  03− 3233 −0055
  C.WWWブラウザで情報を簡単に見れる人のためにJAS−2
     ふじ3号の衛星としての運用されるまでの名前)の概要、打ち上げ
     までの状況、運用中における状況を説明したホームページを紹介し
     ておきます.

     社団法人日本アマチュア無線連盟(JARL)のホームページ

          http://www.jarl.or.jp/Japanese/3_Fuji/jasmenu.htm
 
     宇宙開発事業団(NASDA)ホームページ 
          http://www.nasda.go.jp/
         打上げ衛星 :地球観測プラットフォーム技術衛星(ADEOS) 
                       アマチュア衛星3号(JAS-2)
          http://spaceboy.nasda.go.jp/note/eisei/j/Eis15h_j.html#Eis15h_01_j
     http://spaceboy.nasda.go.jp/note/eisei/j/Eis15i_j.html        

  D.JAMSATによる軌道情報の活用
        JAMSATのホームページまたはjamsat−kepsの軌道要素より
      衛星の軌道情報を得る.
     JAMSATホームページ
               URL    http://www.jamsat.or.jp
       上記ホームページでは各地で行われるアマチュア通信衛星に関する
      ミューティングのお知らせや世界のアマチュア衛星に関する情報が
      満載されています.

 ========================================================================  
     JAMSATのメンバーのご協力によりJH6MME(高山 秀造)が
    執筆・編集を担当しております.ご指摘の意見、疑問やこのようにしたら
    というアイデアがありましたら小さなことでもかまいませんので気軽に下
    記アドレスまでご連絡ください.jamsat−newsからjas2
    infoへの転載をJH4PHW局坂井さんに担当して頂いております.  
                  E-mail : jh6mme@jamsat.or.jp : jh4phw@jamsat.or.jp
 ===============================   END  ===============================